Location: Unspecified
(0.0000°N, 0.0000°E)
Time: 05:45:54
(UTC+00:00)

Tiros 1 - Pass Details

Date: 01 October 2020
Orbit: 630 x 663 km, 48.4° (Epoch: 28 October)

Event Time Altitude Azimuth Distance (km) Brightness Sun altitude
Rises 10:57:32 0° 233° (SW) 2,912 10.4 76.6°
Reaches altitude 10° 10:59:59 10° 241° (WSW) 2,004 9.7 77.1°
Maximum altitude 11:04:15 38° 309° (NW) 964 8.5 78.2°
Drops below altitude 10° 11:08:33 10° 17° (NNE) 2,010 9.8 79.2°
Sets 11:11:00 0° 25° (NNE) 2,921 10.5 79.8°
